Time,TemperatureF,DewpointF,PressureIn,WindDirection,WindDirectionDegrees,WindSpeedMPH,WindSpeedGustMPH,Humidity,HourlyPrecipIn,Conditions,Clouds,dailyrainin,SoftwareType,DateUTC
2013-05-04 00:00:00,46.0,43.0,30.36,NNE,27,0.0,5.0,87,-99.99,,,-99.99,,2013-05-04 04:00:00,
2013-05-04 00:23:00,46.0,43.0,30.36,NNE,27,0.0,5.0,87,-99.99,,,-99.99,,2013-05-04 04:23:00,
2013-05-04 00:33:00,46.0,43.0,30.36,NNE,27,0.0,5.0,87,-99.99,,,-99.99,,2013-05-04 04:33:00,
2013-05-04 00:43:00,46.0,43.0,30.36,NNE,27,0.0,5.0,87,-99.99,,,-99.99,,2013-05-04 04:43:00,
2013-05-04 00:53:00,46.0,43.0,30.36,NNE,27,0.0,5.0,87,-99.99,,,-99.99,,2013-05-04 04:53:00,
2013-05-04 01:00:00,44.0,42.0,30.33,NNE,13,0.0,4.0,92,-99.99,,,-99.99,,2013-05-04 05:00:00,
2013-05-04 01:22:00,44.0,42.0,30.33,NNE,13,0.0,4.0,92,-99.99,,,-99.99,,2013-05-04 05:22:00,
2013-05-04 01:32:00,44.0,42.0,30.33,NNE,13,0.0,4.0,92,-99.99,,,-99.99,,2013-05-04 05:32:00,
2013-05-04 01:43:00,44.0,42.0,30.33,NNE,13,0.0,4.0,92,-99.99,,,-99.99,,2013-05-04 05:43:00,
2013-05-04 01:52:00,44.0,42.0,30.33,NNE,13,0.0,4.0,92,-99.99,,,-99.99,,2013-05-04 05:52:00,
2013-05-04 02:00:00,42.0,40.0,30.30,NE,36,0.0,4.0,93,-99.99,,,-99.99,,2013-05-04 06:00:00,
2013-05-04 02:22:00,42.0,40.0,30.30,NE,36,0.0,4.0,93,-99.99,,,-99.99,,2013-05-04 06:22:00,
2013-05-04 02:32:00,42.0,40.0,30.30,NE,36,0.0,4.0,93,-99.99,,,-99.99,,2013-05-04 06:32:00,
2013-05-04 02:42:00,42.0,40.0,30.30,NE,36,0.0,4.0,93,-99.99,,,-99.99,,2013-05-04 06:42:00,
2013-05-04 02:52:00,42.0,40.0,30.30,NE,36,0.0,4.0,93,-99.99,,,-99.99,,2013-05-04 06:52:00,
2013-05-04 05:00:00,41.0,40.0,30.27,NNW,342,5.0,6.0,94,-99.99,,,-99.99,,2013-05-04 09:00:00,
2013-05-04 05:22:00,41.0,40.0,30.27,NNW,342,5.0,6.0,94,-99.99,,,-99.99,,2013-05-04 09:22:00,
2013-05-04 05:33:00,41.0,40.0,30.27,NNW,342,5.0,6.0,94,-99.99,,,-99.99,,2013-05-04 09:33:00,
2013-05-04 05:42:00,41.0,40.0,30.27,NNW,342,5.0,6.0,94,-99.99,,,-99.99,,2013-05-04 09:42:00,
2013-05-04 05:53:00,41.0,40.0,30.27,NNW,342,5.0,6.0,94,-99.99,,,-99.99,,2013-05-04 09:53:00,
2013-05-04 06:00:00,42.0,40.0,30.27,NNE,23,4.0,6.0,94,-99.99,,,-99.99,,2013-05-04 10:00:00,
2013-05-04 06:33:00,42.0,40.0,30.27,NNE,23,4.0,6.0,94,-99.99,,,-99.99,,2013-05-04 10:33:00,
2013-05-04 06:42:00,42.0,40.0,30.27,NNE,23,4.0,6.0,94,-99.99,,,-99.99,,2013-05-04 10:42:00,
2013-05-04 06:53:00,42.0,40.0,30.27,NNE,23,4.0,6.0,94,-99.99,,,-99.99,,2013-05-04 10:53:00,
2013-05-04 07:00:00,44.0,41.0,30.30,NE,45,4.0,8.0,91,-99.99,,,-99.99,,2013-05-04 11:00:00,
2013-05-04 07:22:00,44.0,41.0,30.30,NE,45,4.0,8.0,91,-99.99,,,-99.99,,2013-05-04 11:22:00,
2013-05-04 07:32:00,44.0,41.0,30.30,NE,45,4.0,8.0,91,-99.99,,,-99.99,,2013-05-04 11:32:00,
2013-05-04 07:46:00,44.0,41.0,30.30,NE,45,4.0,8.0,91,-99.99,,,-99.99,,2013-05-04 11:46:00,
2013-05-04 08:00:00,49.0,45.0,30.30,NE,44,8.0,11.0,84,-99.99,,,-99.99,,2013-05-04 12:00:00,
2013-05-04 08:30:00,49.0,45.0,30.30,NE,44,8.0,11.0,84,-99.99,,,-99.99,,2013-05-04 12:30:00,
2013-05-04 08:37:00,49.0,45.0,30.30,NE,44,8.0,11.0,84,-99.99,,,-99.99,,2013-05-04 12:37:00,
2013-05-04 08:52:00,49.0,45.0,30.30,NE,44,8.0,11.0,84,-99.99,,,-99.99,,2013-05-04 12:52:00,
2013-05-04 09:00:00,55.0,45.0,30.30,NE,37,4.0,15.0,70,-99.99,,,-99.99,,2013-05-04 13:00:00,
2013-05-04 09:32:00,55.0,45.0,30.30,NE,37,4.0,15.0,70,-99.99,,,-99.99,,2013-05-04 13:32:00,
2013-05-04 09:42:00,55.0,45.0,30.30,NE,37,4.0,15.0,70,-99.99,,,-99.99,,2013-05-04 13:42:00,
2013-05-04 09:53:00,55.0,45.0,30.30,NE,37,4.0,15.0,70,-99.99,,,-99.99,,2013-05-04 13:53:00,
2013-05-04 10:00:00,58.0,43.0,30.30,NNE,22,6.0,12.0,58,-99.99,,,-99.99,,2013-05-04 14:00:00,
2013-05-04 10:32:00,58.0,43.0,30.30,NNE,22,6.0,12.0,58,-99.99,,,-99.99,,2013-05-04 14:32:00,
2013-05-04 10:42:00,58.0,43.0,30.30,NNE,22,6.0,12.0,58,-99.99,,,-99.99,,2013-05-04 14:42:00,
2013-05-04 10:52:00,58.0,43.0,30.30,NNE,22,6.0,12.0,58,-99.99,,,-99.99,,2013-05-04 14:52:00,
2013-05-04 11:00:00,62.0,40.0,30.27,NE,46,9.0,15.0,45,-99.99,,,-99.99,,2013-05-04 15:00:00,
2013-05-04 11:22:00,62.0,40.0,30.27,NE,46,9.0,15.0,45,-99.99,,,-99.99,,2013-05-04 15:22:00,
2013-05-04 11:33:00,62.0,40.0,30.27,NE,46,9.0,15.0,45,-99.99,,,-99.99,,2013-05-04 15:33:00,
2013-05-04 11:43:00,62.0,40.0,30.27,NE,46,9.0,15.0,45,-99.99,,,-99.99,,2013-05-04 15:43:00,
2013-05-04 11:53:00,62.0,40.0,30.27,NE,46,9.0,15.0,45,-99.99,,,-99.99,,2013-05-04 15:53:00,
2013-05-04 12:00:00,62.0,39.0,30.27,ENE,70,12.0,20.0,43,-99.99,,,-99.99,,2013-05-04 16:00:00,
2013-05-04 12:33:00,62.0,39.0,30.27,ENE,70,12.0,20.0,43,-99.99,,,-99.99,,2013-05-04 16:33:00,
2013-05-04 12:42:00,62.0,39.0,30.27,ENE,70,12.0,20.0,43,-99.99,,,-99.99,,2013-05-04 16:42:00,
2013-05-04 12:52:00,62.0,39.0,30.27,ENE,70,12.0,20.0,43,-99.99,,,-99.99,,2013-05-04 16:52:00,
2013-05-04 13:00:00,62.0,40.0,30.27,NE,47,7.0,19.0,44,-99.99,,,-99.99,,2013-05-04 17:00:00,
2013-05-04 13:33:00,62.0,40.0,30.27,NE,47,7.0,19.0,44,-99.99,,,-99.99,,2013-05-04 17:33:00,
2013-05-04 13:42:00,62.0,40.0,30.27,NE,47,7.0,19.0,44,-99.99,,,-99.99,,2013-05-04 17:42:00,
2013-05-04 13:52:00,62.0,40.0,30.27,NE,47,7.0,19.0,44,-99.99,,,-99.99,,2013-05-04 17:52:00,
2013-05-04 14:00:00,62.0,38.0,30.27,ENE,73,10.0,19.0,41,-99.99,,,-99.99,,2013-05-04 18:00:00,
2013-05-04 14:22:00,62.0,38.0,30.27,ENE,73,10.0,19.0,41,-99.99,,,-99.99,,2013-05-04 18:22:00,
2013-05-04 14:32:00,62.0,38.0,30.27,ENE,73,10.0,19.0,41,-99.99,,,-99.99,,2013-05-04 18:32:00,
2013-05-04 14:42:00,62.0,38.0,30.27,ENE,73,10.0,19.0,41,-99.99,,,-99.99,,2013-05-04 18:42:00,
2013-05-04 14:52:00,62.0,38.0,30.27,ENE,73,10.0,19.0,41,-99.99,,,-99.99,,2013-05-04 18:52:00,
2013-05-04 15:00:00,61.0,37.0,30.27,ENE,61,10.0,23.0,42,-99.99,,,-99.99,,2013-05-04 19:00:00,
2013-05-04 15:22:00,61.0,37.0,30.27,ENE,61,10.0,23.0,42,-99.99,,,-99.99,,2013-05-04 19:22:00,
2013-05-04 15:32:00,61.0,37.0,30.27,ENE,61,10.0,23.0,42,-99.99,,,-99.99,,2013-05-04 19:32:00,
2013-05-04 15:42:00,61.0,37.0,30.27,ENE,61,10.0,23.0,42,-99.99,,,-99.99,,2013-05-04 19:42:00,
2013-05-04 15:52:00,61.0,37.0,30.27,ENE,61,10.0,23.0,42,-99.99,,,-99.99,,2013-05-04 19:52:00,
2013-05-04 16:00:00,61.0,36.0,30.24,SSW,202,0.0,18.0,39,-99.99,,,-99.99,,2013-05-04 20:00:00,
2013-05-04 16:22:00,61.0,36.0,30.24,SSW,202,0.0,18.0,39,-99.99,,,-99.99,,2013-05-04 20:22:00,
2013-05-04 16:32:00,61.0,36.0,30.24,SSW,202,0.0,18.0,39,-99.99,,,-99.99,,2013-05-04 20:32:00,
2013-05-04 16:42:00,61.0,36.0,30.24,SSW,202,0.0,18.0,39,-99.99,,,-99.99,,2013-05-04 20:42:00,
2013-05-04 16:52:00,61.0,36.0,30.24,SSW,202,0.0,18.0,39,-99.99,,,-99.99,,2013-05-04 20:52:00,
2013-05-04 17:00:00,59.0,38.0,30.24,NE,56,5.0,17.0,45,-99.99,,,-99.99,,2013-05-04 21:00:00,
2013-05-04 17:22:00,59.0,38.0,30.24,NE,56,5.0,17.0,45,-99.99,,,-99.99,,2013-05-04 21:22:00,
2013-05-04 17:33:00,59.0,38.0,30.24,NE,56,5.0,17.0,45,-99.99,,,-99.99,,2013-05-04 21:33:00,
2013-05-04 17:43:00,59.0,38.0,30.24,NE,56,5.0,17.0,45,-99.99,,,-99.99,,2013-05-04 21:43:00,
2013-05-04 17:53:00,59.0,38.0,30.24,NE,56,5.0,17.0,45,-99.99,,,-99.99,,2013-05-04 21:53:00,
2013-05-04 18:00:00,57.0,41.0,30.24,ESE,120,7.0,17.0,54,-99.99,,,-99.99,,2013-05-04 22:00:00,
2013-05-04 18:22:00,57.0,41.0,30.24,ESE,120,7.0,17.0,54,-99.99,,,-99.99,,2013-05-04 22:22:00,
2013-05-04 18:33:00,57.0,41.0,30.24,ESE,120,7.0,17.0,54,-99.99,,,-99.99,,2013-05-04 22:33:00,
2013-05-04 18:43:00,57.0,41.0,30.24,ESE,120,7.0,17.0,54,-99.99,,,-99.99,,2013-05-04 22:43:00,
2013-05-04 18:52:00,57.0,41.0,30.24,ESE,120,7.0,17.0,54,-99.99,,,-99.99,,2013-05-04 22:52:00,
2013-05-04 19:00:00,54.0,39.0,30.24,ESE,103,11.0,13.0,57,-99.99,,,-99.99,,2013-05-04 23:00:00,
2013-05-04 19:22:00,54.0,39.0,30.24,ESE,103,11.0,13.0,57,-99.99,,,-99.99,,2013-05-04 23:22:00,
2013-05-04 19:32:00,54.0,39.0,30.24,ESE,103,11.0,13.0,57,-99.99,,,-99.99,,2013-05-04 23:32:00,
2013-05-04 19:42:00,54.0,39.0,30.24,ESE,103,11.0,13.0,57,-99.99,,,-99.99,,2013-05-04 23:42:00,
2013-05-04 19:52:00,54.0,39.0,30.24,ESE,103,11.0,13.0,57,-99.99,,,-99.99,,2013-05-04 23:52:00,
2013-05-04 20:00:00,49.0,39.0,30.24,ENE,73,2.0,14.0,67,-99.99,,,-99.99,,2013-05-05 00:00:00,
2013-05-04 20:32:00,49.0,39.0,30.24,ENE,73,2.0,14.0,67,-99.99,,,-99.99,,2013-05-05 00:32:00,
2013-05-04 20:42:00,49.0,39.0,30.24,ENE,73,2.0,14.0,67,-99.99,,,-99.99,,2013-05-05 00:42:00,
2013-05-04 20:52:00,49.0,39.0,30.24,ENE,73,2.0,14.0,67,-99.99,,,-99.99,,2013-05-05 00:52:00,
2013-05-04 21:00:00,46.0,40.0,30.24,NE,56,2.0,9.0,78,-99.99,,,-99.99,,2013-05-05 01:00:00,
2013-05-04 21:22:00,46.0,40.0,30.24,NE,56,2.0,9.0,78,-99.99,,,-99.99,,2013-05-05 01:22:00,
2013-05-04 21:32:00,46.0,40.0,30.24,NE,56,2.0,9.0,78,-99.99,,,-99.99,,2013-05-05 01:32:00,
2013-05-04 21:42:00,46.0,40.0,30.24,NE,56,2.0,9.0,78,-99.99,,,-99.99,,2013-05-05 01:42:00,
2013-05-04 21:52:00,46.0,40.0,30.24,NE,56,2.0,9.0,78,-99.99,,,-99.99,,2013-05-05 01:52:00,
2013-05-04 22:00:00,44.0,39.0,30.27,East,83,2.0,5.0,84,-99.99,,,-99.99,,2013-05-05 02:00:00,
2013-05-04 22:32:00,44.0,39.0,30.27,East,83,2.0,5.0,84,-99.99,,,-99.99,,2013-05-05 02:32:00,
2013-05-04 22:42:00,44.0,39.0,30.27,East,83,2.0,5.0,84,-99.99,,,-99.99,,2013-05-05 02:42:00,
2013-05-04 22:52:00,44.0,39.0,30.27,East,83,2.0,5.0,84,-99.99,,,-99.99,,2013-05-05 02:52:00,
2013-05-04 23:00:00,43.0,38.0,30.27,NE,45,3.0,5.0,85,-99.99,,,-99.99,,2013-05-05 03:00:00,
2013-05-04 23:22:00,43.0,38.0,30.27,NE,45,3.0,5.0,85,-99.99,,,-99.99,,2013-05-05 03:22:00,
2013-05-04 23:33:00,43.0,38.0,30.27,NE,45,3.0,5.0,85,-99.99,,,-99.99,,2013-05-05 03:33:00,
2013-05-04 23:42:00,43.0,38.0,30.27,NE,45,3.0,5.0,85,-99.99,,,-99.99,,2013-05-05 03:42:00,
2013-05-04 23:53:00,43.0,38.0,30.27,NE,45,3.0,5.0,85,-99.99,,,-99.99,,2013-05-05 03:53:00,